Time,TemperatureF,DewpointF,PressureIn,WindDirection,WindDirectionDegrees,WindSpeedMPH,WindSpeedGustMPH,Humidity,HourlyPrecipIn,Conditions,Clouds,dailyrainin,SoftwareType,DateUTC
2013-07-10 00:04:00,52.5,49.0,30.41,West,271,2.0,8.0,88,0.00,,,0.00,LWC V2.10 B1813,2013-07-10 08:04:00,
2013-07-10 00:09:00,52.5,49.0,30.41,WNW,286,5.0,13.0,88,0.00,,,0.00,LWC V2.10 B1813,2013-07-10 08:09:00,
2013-07-10 00:14:00,52.4,49.0,30.41,SSW,202,0.0,9.0,88,0.00,,,0.00,LWC V2.10 B1813,2013-07-10 08:14:00,
2013-07-10 00:19:00,52.3,48.9,30.41,North,0,4.0,13.0,88,0.00,,,0.00,LWC V2.10 B1813,2013-07-10 08:19:00,
2013-07-10 00:24:00,52.3,48.9,30.41,NW,305,2.0,10.0,88,0.00,,,0.00,LWC V2.10 B1813,2013-07-10 08:24:00,
2013-07-10 00:29:00,52.2,48.8,30.42,West,265,3.0,5.0,88,0.00,,,0.00,LWC V2.10 B1813,2013-07-10 08:29:00,
2013-07-10 00:34:00,52.1,49.0,30.42,NW,315,1.0,10.0,89,0.00,,,0.00,LWC V2.10 B1813,2013-07-10 08:34:00,
2013-07-10 00:39:00,52.0,48.9,30.41,WNW,303,1.0,5.0,89,0.00,,,0.00,LWC V2.10 B1813,2013-07-10 08:39:00,
2013-07-10 00:44:00,51.9,48.8,30.41,SW,225,4.0,13.0,89,0.00,,,0.00,LWC V2.10 B1813,2013-07-10 08:44:00,
2013-07-10 00:49:00,51.8,48.7,30.41,WSW,244,1.0,9.0,89,0.00,,,0.00,LWC V2.10 B1813,2013-07-10 08:49:00,
2013-07-10 00:54:00,51.6,48.8,30.41,West,268,4.0,9.0,90,0.00,,,0.00,LWC V2.10 B1813,2013-07-10 08:54:00,
2013-07-10 00:59:00,51.5,48.7,30.42,WNW,284,6.0,10.0,90,0.00,,,0.00,LWC V2.10 B1813,2013-07-10 08:59:00,
2013-07-10 01:04:00,51.4,48.6,30.42,West,279,3.0,7.0,90,0.00,,,0.00,LWC V2.10 B1813,2013-07-10 09:04:00,
2013-07-10 01:09:00,51.3,48.8,30.42,WSW,237,2.0,7.0,91,0.00,,,0.00,LWC V2.10 B1813,2013-07-10 09:09:00,
2013-07-10 01:14:00,51.2,48.7,30.42,West,260,9.0,9.0,91,0.00,,,0.00,LWC V2.10 B1813,2013-07-10 09:14:00,
2013-07-10 01:19:00,51.1,48.6,30.42,WSW,254,0.0,13.0,91,0.00,,,0.00,LWC V2.10 B1813,2013-07-10 09:19:00,
2013-07-10 01:24:00,51.0,48.5,30.42,WSW,237,1.0,10.0,91,0.00,,,0.00,LWC V2.10 B1813,2013-07-10 09:24:00,
2013-07-10 01:29:00,51.0,48.5,30.42,SW,223,0.0,6.0,91,0.00,,,0.00,LWC V2.10 B1813,2013-07-10 09:29:00,
2013-07-10 01:34:00,50.9,48.4,30.42,WNW,296,0.0,8.0,91,0.00,,,0.00,LWC V2.10 B1813,2013-07-10 09:34:00,
2013-07-10 01:39:00,50.8,48.6,30.42,West,277,5.0,11.0,92,0.00,,,0.00,LWC V2.10 B1813,2013-07-10 09:39:00,
2013-07-10 01:44:00,50.8,48.6,30.42,West,261,4.0,8.0,92,0.00,,,0.00,LWC V2.10 B1813,2013-07-10 09:44:00,
2013-07-10 01:49:00,50.7,48.5,30.42,WNW,296,5.0,7.0,92,0.00,,,0.00,LWC V2.10 B1813,2013-07-10 09:49:00,
2013-07-10 01:54:00,50.7,48.5,30.42,WSW,252,4.0,7.0,92,0.00,,,0.00,LWC V2.10 B1813,2013-07-10 09:54:00,
2013-07-10 01:59:00,50.6,48.4,30.42,West,262,0.0,12.0,92,0.00,,,0.00,LWC V2.10 B1813,2013-07-10 09:59:00,
2013-07-10 02:04:00,50.6,48.4,30.42,WSW,258,2.0,6.0,92,0.00,,,0.00,LWC V2.10 B1813,2013-07-10 10:04:00,
2013-07-10 02:09:00,50.6,48.4,30.42,WSW,257,0.0,14.0,92,0.00,,,0.00,LWC V2.10 B1813,2013-07-10 10:09:00,
2013-07-10 02:14:00,50.5,48.3,30.42,WSW,240,1.0,12.0,92,0.00,,,0.00,LWC V2.10 B1813,2013-07-10 10:14:00,
2013-07-10 02:19:00,50.5,48.3,30.42,West,273,4.0,9.0,92,0.00,,,0.00,LWC V2.10 B1813,2013-07-10 10:19:00,
2013-07-10 02:24:00,50.4,48.2,30.43,WSW,247,0.0,7.0,92,0.00,,,0.00,LWC V2.10 B1813,2013-07-10 10:24:00,
2013-07-10 02:29:00,50.4,48.2,30.42,WNW,284,3.0,10.0,92,0.00,,,0.00,LWC V2.10 B1813,2013-07-10 10:29:00,
2013-07-10 02:34:00,50.4,48.2,30.42,WSW,254,0.0,9.0,92,0.00,,,0.00,LWC V2.10 B1813,2013-07-10 10:34:00,
2013-07-10 02:39:00,50.3,48.1,30.42,West,259,2.0,8.0,92,0.00,,,0.00,LWC V2.10 B1813,2013-07-10 10:39:00,
2013-07-10 02:44:00,50.3,48.1,30.42,WSW,251,1.0,12.0,92,0.00,,,0.00,LWC V2.10 B1813,2013-07-10 10:44:00,
2013-07-10 02:49:00,50.2,48.0,30.42,WSW,250,2.0,7.0,92,0.00,,,0.00,LWC V2.10 B1813,2013-07-10 10:49:00,
2013-07-10 02:54:00,50.2,48.0,30.42,West,271,6.0,8.0,92,0.00,,,0.00,LWC V2.10 B1813,2013-07-10 10:54:00,
2013-07-10 02:59:00,50.2,48.0,30.42,SW,234,3.0,5.0,92,0.00,,,0.00,LWC V2.10 B1813,2013-07-10 10:59:00,
2013-07-10 03:04:00,50.1,47.9,30.42,West,281,2.0,7.0,92,0.00,,,0.00,LWC V2.10 B1813,2013-07-10 11:04:00,
2013-07-10 03:09:00,50.1,48.2,30.42,West,265,1.0,4.0,93,0.00,,,0.00,LWC V2.10 B1813,2013-07-10 11:09:00,
2013-07-10 03:14:00,50.1,48.2,30.42,NW,306,0.0,8.0,93,0.00,,,0.00,LWC V2.10 B1813,2013-07-10 11:14:00,
2013-07-10 03:19:00,50.1,48.2,30.42,North,0,4.0,8.0,93,0.00,,,0.00,LWC V2.10 B1813,2013-07-10 11:19:00,
2013-07-10 03:24:00,50.1,48.2,30.42,West,267,2.0,8.0,93,0.00,,,0.00,LWC V2.10 B1813,2013-07-10 11:24:00,
2013-07-10 03:29:00,50.1,48.2,30.42,West,276,0.0,10.0,93,0.00,,,0.00,LWC V2.10 B1813,2013-07-10 11:29:00,
2013-07-10 03:34:00,50.1,48.2,30.42,WNW,294,2.0,5.0,93,0.00,,,0.00,LWC V2.10 B1813,2013-07-10 11:34:00,
2013-07-10 03:39:00,50.0,48.1,30.42,North,0,0.0,11.0,93,0.00,,,0.00,LWC V2.10 B1813,2013-07-10 11:39:00,
2013-07-10 03:44:00,50.0,48.1,30.42,WNW,295,3.0,10.0,93,0.00,,,0.00,LWC V2.10 B1813,2013-07-10 11:44:00,
2013-07-10 03:49:00,50.0,48.1,30.42,North,0,0.0,6.0,93,0.00,,,0.00,LWC V2.10 B1813,2013-07-10 11:49:00,
2013-07-10 03:54:00,50.0,48.1,30.42,WSW,252,5.0,7.0,93,0.00,,,0.00,LWC V2.10 B1813,2013-07-10 11:54:00,
2013-07-10 03:59:00,50.0,48.1,30.42,WSW,250,0.0,4.0,93,0.00,,,0.00,LWC V2.10 B1813,2013-07-10 11:59:00,
2013-07-10 04:04:00,49.9,48.0,30.42,North,0,1.0,9.0,93,0.00,,,0.00,LWC V2.10 B1813,2013-07-10 12:04:00,
2013-07-10 04:09:00,49.9,48.0,30.42,SSW,204,0.0,7.0,93,0.00,,,0.00,LWC V2.10 B1813,2013-07-10 12:09:00,
2013-07-10 04:14:00,49.9,48.0,30.42,WNW,283,2.0,11.0,93,0.00,,,0.00,LWC V2.10 B1813,2013-07-10 12:14:00,
2013-07-10 04:19:00,49.9,48.0,30.42,West,265,7.0,9.0,93,0.00,,,0.00,LWC V2.10 B1813,2013-07-10 12:19:00,
2013-07-10 04:24:00,49.9,48.0,30.41,West,277,1.0,4.0,93,0.00,,,0.00,LWC V2.10 B1813,2013-07-10 12:24:00,
2013-07-10 04:29:00,49.9,48.0,30.42,West,276,0.0,5.0,93,0.00,,,0.00,LWC V2.10 B1813,2013-07-10 12:29:00,
2013-07-10 04:34:00,49.9,48.0,30.41,West,271,3.0,3.0,93,0.00,,,0.00,LWC V2.10 B1813,2013-07-10 12:34:00,
2013-07-10 04:39:00,49.9,48.0,30.41,SW,223,0.0,10.0,93,0.00,,,0.00,LWC V2.10 B1813,2013-07-10 12:39:00,
2013-07-10 04:44:00,49.8,47.9,30.41,WNW,289,0.0,4.0,93,0.00,,,0.00,LWC V2.10 B1813,2013-07-10 12:44:00,
2013-07-10 04:49:00,49.9,48.0,30.41,West,260,0.0,2.0,93,0.00,,,0.00,LWC V2.10 B1813,2013-07-10 12:49:00,
2013-07-10 04:54:00,49.9,48.0,30.41,West,279,0.0,2.0,93,0.00,,,0.00,LWC V2.10 B1813,2013-07-10 12:54:00,
2013-07-10 04:59:00,49.9,48.0,30.42,West,275,2.0,7.0,93,0.00,,,0.00,LWC V2.10 B1813,2013-07-10 12:59:00,
2013-07-10 05:04:00,49.9,48.2,30.42,WSW,252,3.0,4.0,94,0.00,,,0.00,LWC V2.10 B1813,2013-07-10 13:04:00,
2013-07-10 05:09:00,49.9,48.2,30.42,West,276,6.0,9.0,94,0.00,,,0.00,LWC V2.10 B1813,2013-07-10 13:09:00,
2013-07-10 05:14:00,49.8,48.1,30.42,West,261,3.0,7.0,94,0.00,,,0.00,LWC V2.10 B1813,2013-07-10 13:14:00,
2013-07-10 05:19:00,49.8,48.1,30.42,SW,220,4.0,10.0,94,0.00,,,0.00,LWC V2.10 B1813,2013-07-10 13:19:00,
2013-07-10 05:24:00,49.7,48.0,30.42,WSW,242,2.0,7.0,94,0.00,,,0.00,LWC V2.10 B1813,2013-07-10 13:24:00,
2013-07-10 05:29:00,49.7,48.0,30.42,WSW,257,0.0,8.0,94,0.00,,,0.00,LWC V2.10 B1813,2013-07-10 13:29:00,
2013-07-10 05:34:00,49.7,48.0,30.42,West,275,0.0,6.0,94,0.00,,,0.00,LWC V2.10 B1813,2013-07-10 13:34:00,
2013-07-10 05:39:00,49.7,48.0,30.42,NW,319,4.0,5.0,94,0.00,,,0.00,LWC V2.10 B1813,2013-07-10 13:39:00,
2013-07-10 05:44:00,49.7,48.0,30.42,SW,233,0.0,7.0,94,0.00,,,0.00,LWC V2.10 B1813,2013-07-10 13:44:00,
2013-07-10 05:49:00,49.6,47.9,30.42,WSW,240,6.0,10.0,94,0.00,,,0.00,LWC V2.10 B1813,2013-07-10 13:49:00,
2013-07-10 05:54:00,49.6,47.9,30.42,West,261,0.0,2.0,94,0.00,,,0.00,LWC V2.10 B1813,2013-07-10 13:54:00,
2013-07-10 05:59:00,49.6,47.9,30.41,WNW,299,1.0,8.0,94,0.00,,,0.00,LWC V2.10 B1813,2013-07-10 13:59:00,
2013-07-10 06:04:00,49.6,47.9,30.41,WSW,249,4.0,5.0,94,0.00,,,0.00,LWC V2.10 B1813,2013-07-10 14:04:00,
2013-07-10 06:09:00,49.6,47.9,30.41,WNW,290,8.0,9.0,94,0.00,,,0.01,LWC V2.10 B1813,2013-07-10 14:09:00,
2013-07-10 06:14:00,49.6,47.9,30.41,SW,234,8.0,8.0,94,0.00,,,0.01,LWC V2.10 B1813,2013-07-10 14:14:00,
2013-07-10 06:19:00,49.6,47.9,30.41,SSW,206,5.0,8.0,94,0.05,,,0.02,LWC V2.10 B1813,2013-07-10 14:19:00,
2013-07-10 06:24:00,49.6,47.9,30.41,WNW,291,1.0,7.0,94,0.05,,,0.02,LWC V2.10 B1813,2013-07-10 14:24:00,
2013-07-10 06:29:00,49.6,48.2,30.41,SW,215,3.0,9.0,95,0.05,,,0.02,LWC V2.10 B1813,2013-07-10 14:29:00,
2013-07-10 06:34:00,49.6,48.2,30.41,WNW,284,3.0,9.0,95,0.04,,,0.02,LWC V2.10 B1813,2013-07-10 14:34:00,
2013-07-10 06:39:00,49.6,48.2,30.41,WNW,291,1.0,4.0,95,0.00,,,0.02,LWC V2.10 B1813,2013-07-10 14:39:00,
2013-07-10 06:44:00,49.6,48.2,30.41,WSW,248,6.0,6.0,95,0.00,,,0.02,LWC V2.10 B1813,2013-07-10 14:44:00,
2013-07-10 06:49:00,49.6,48.2,30.40,WSW,250,4.0,10.0,95,0.00,,,0.03,LWC V2.10 B1813,2013-07-10 14:49:00,
2013-07-10 06:54:00,49.6,48.2,30.40,NNW,333,3.0,7.0,95,0.00,,,0.03,LWC V2.10 B1813,2013-07-10 14:54:00,
2013-07-10 06:59:00,49.6,48.2,30.41,WNW,292,0.0,4.0,95,0.04,,,0.04,LWC V2.10 B1813,2013-07-10 14:59:00,
2013-07-10 07:04:00,49.6,48.2,30.40,SW,219,2.0,11.0,95,0.04,,,0.04,LWC V2.10 B1813,2013-07-10 15:04:00,
2013-07-10 07:09:00,49.6,48.2,30.40,WNW,286,0.0,8.0,95,0.04,,,0.04,LWC V2.10 B1813,2013-07-10 15:09:00,
2013-07-10 07:14:00,49.6,48.2,30.41,NW,316,4.0,7.0,95,0.04,,,0.05,LWC V2.10 B1813,2013-07-10 15:14:00,
2013-07-10 07:19:00,49.6,48.2,30.40,WNW,299,7.0,9.0,95,0.04,,,0.05,LWC V2.10 B1813,2013-07-10 15:19:00,
2013-07-10 07:24:00,49.6,48.2,30.40,WSW,240,2.0,8.0,95,0.08,,,0.06,LWC V2.10 B1813,2013-07-10 15:24:00,
2013-07-10 07:29:00,49.6,48.2,30.40,West,269,6.0,9.0,95,0.07,,,0.07,LWC V2.10 B1813,2013-07-10 15:29:00,
2013-07-10 07:34:00,49.7,48.3,30.40,WNW,302,0.0,10.0,95,0.07,,,0.07,LWC V2.10 B1813,2013-07-10 15:34:00,
2013-07-10 07:39:00,49.7,48.3,30.40,NW,319,2.0,8.0,95,0.09,,,0.08,LWC V2.10 B1813,2013-07-10 15:39:00,
2013-07-10 07:44:00,49.7,48.3,30.40,West,269,3.0,11.0,95,0.07,,,0.09,LWC V2.10 B1813,2013-07-10 15:44:00,
2013-07-10 07:49:00,49.8,48.4,30.40,SW,233,5.0,7.0,95,0.11,,,0.09,LWC V2.10 B1813,2013-07-10 15:49:00,
2013-07-10 07:54:00,49.9,48.5,30.40,NW,313,7.0,9.0,95,0.11,,,0.10,LWC V2.10 B1813,2013-07-10 15:54:00,
2013-07-10 07:59:00,50.0,48.6,30.40,West,272,1.0,9.0,95,0.08,,,0.11,LWC V2.10 B1813,2013-07-10 15:59:00,
2013-07-10 08:04:00,50.1,48.7,30.40,SW,217,0.0,9.0,95,0.10,,,0.12,LWC V2.10 B1813,2013-07-10 16:04:00,
2013-07-10 08:09:00,50.1,48.7,30.40,WSW,254,0.0,8.0,95,0.09,,,0.12,LWC V2.10 B1813,2013-07-10 16:09:00,
2013-07-10 08:14:00,50.1,48.7,30.40,West,266,5.0,7.0,95,0.08,,,0.13,LWC V2.10 B1813,2013-07-10 16:14:00,
2013-07-10 08:19:00,50.2,49.1,30.40,WSW,245,2.0,16.0,96,0.11,,,0.14,LWC V2.10 B1813,2013-07-10 16:19:00,
2013-07-10 08:24:00,50.1,48.7,30.40,NW,307,3.0,9.0,95,0.08,,,0.15,LWC V2.10 B1813,2013-07-10 16:24:00,
2013-07-10 08:29:00,50.0,48.6,30.40,WNW,303,0.0,4.0,95,0.10,,,0.16,LWC V2.10 B1813,2013-07-10 16:29:00,
2013-07-10 08:35:00,49.8,48.4,30.40,WNW,283,4.0,6.0,95,0.09,,,0.16,LWC V2.10 B1813,2013-07-10 16:35:00,
2013-07-10 08:40:00,49.7,48.3,30.40,NNW,329,6.0,6.0,95,0.08,,,0.17,LWC V2.10 B1813,2013-07-10 16:40:00,
2013-07-10 08:45:00,49.5,48.1,30.41,WNW,283,0.0,8.0,95,0.08,,,0.18,LWC V2.10 B1813,2013-07-10 16:45:00,
2013-07-10 08:50:00,49.3,47.9,30.41,WNW,302,0.0,11.0,95,0.08,,,0.18,LWC V2.10 B1813,2013-07-10 16:50:00,
2013-07-10 08:55:00,49.0,47.6,30.41,NW,315,1.0,9.0,95,0.06,,,0.18,LWC V2.10 B1813,2013-07-10 16:55:00,
2013-07-10 09:00:00,48.8,47.4,30.41,NNW,329,6.0,8.0,95,0.06,,,0.19,LWC V2.10 B1813,2013-07-10 17:00:00,
2013-07-10 09:05:00,48.6,47.2,30.41,West,274,1.0,11.0,95,0.06,,,0.19,LWC V2.10 B1813,2013-07-10 17:05:00,
2013-07-10 09:10:00,48.4,47.0,30.42,NW,325,2.0,5.0,95,0.04,,,0.19,LWC V2.10 B1813,2013-07-10 17:10:00,
2013-07-10 09:15:00,48.4,47.0,30.42,West,277,1.0,3.0,95,0.00,,,0.19,LWC V2.10 B1813,2013-07-10 17:15:00,
2013-07-10 09:20:00,48.4,47.0,30.42,NW,313,6.0,9.0,95,0.00,,,0.19,LWC V2.10 B1813,2013-07-10 17:20:00,
2013-07-10 09:25:00,48.4,47.0,30.42,West,280,2.0,3.0,95,0.00,,,0.19,LWC V2.10 B1813,2013-07-10 17:25:00,
2013-07-10 09:30:00,48.3,46.9,30.42,WSW,255,1.0,7.0,95,0.00,,,0.19,LWC V2.10 B1813,2013-07-10 17:30:00,
2013-07-10 09:35:00,48.3,46.9,30.42,West,271,1.0,10.0,95,0.00,,,0.19,LWC V2.10 B1813,2013-07-10 17:35:00,
2013-07-10 09:40:00,48.4,47.0,30.42,NNW,336,2.0,8.0,95,0.00,,,0.19,LWC V2.10 B1813,2013-07-10 17:40:00,
2013-07-10 09:45:00,48.5,47.1,30.42,WSW,254,1.0,11.0,95,0.00,,,0.19,LWC V2.10 B1813,2013-07-10 17:45:00,
2013-07-10 09:50:00,48.5,47.1,30.42,WSW,251,1.0,6.0,95,0.00,,,0.19,LWC V2.10 B1813,2013-07-10 17:50:00,
2013-07-10 09:55:00,48.5,47.1,30.42,NW,304,3.0,9.0,95,0.00,,,0.19,LWC V2.10 B1813,2013-07-10 17:55:00,
2013-07-10 10:00:00,48.7,47.3,30.42,West,267,0.0,8.0,95,0.00,,,0.19,LWC V2.10 B1813,2013-07-10 18:00:00,
2013-07-10 10:05:00,48.6,47.2,30.42,WNW,286,3.0,11.0,95,0.00,,,0.19,LWC V2.10 B1813,2013-07-10 18:05:00,
2013-07-10 10:10:00,48.4,47.0,30.42,WNW,295,0.0,10.0,95,0.00,,,0.19,LWC V2.10 B1813,2013-07-10 18:10:00,
2013-07-10 10:15:00,48.1,46.7,30.42,NW,307,0.0,2.0,95,0.00,,,0.19,LWC V2.10 B1813,2013-07-10 18:15:00,
2013-07-10 10:20:00,48.2,46.8,30.41,NNW,327,1.0,12.0,95,0.00,,,0.19,LWC V2.10 B1813,2013-07-10 18:20:00,
2013-07-10 10:25:00,48.3,46.9,30.42,WSW,241,4.0,11.0,95,0.00,,,0.19,LWC V2.10 B1813,2013-07-10 18:25:00,
2013-07-10 10:30:00,48.4,47.0,30.41,West,270,6.0,7.0,95,0.00,,,0.19,LWC V2.10 B1813,2013-07-10 18:30:00,
2013-07-10 10:35:00,48.5,47.1,30.42,WNW,302,1.0,8.0,95,0.00,,,0.19,LWC V2.10 B1813,2013-07-10 18:35:00,
2013-07-10 10:40:00,48.5,47.1,30.41,West,279,1.0,12.0,95,0.00,,,0.19,LWC V2.10 B1813,2013-07-10 18:40:00,
2013-07-10 10:45:00,48.3,46.7,30.42,NW,304,3.0,8.0,94,0.00,,,0.19,LWC V2.10 B1813,2013-07-10 18:45:00,
2013-07-10 10:50:00,48.3,46.7,30.42,WNW,301,1.0,8.0,94,0.00,,,0.19,LWC V2.10 B1813,2013-07-10 18:50:00,
2013-07-10 10:55:00,48.2,46.6,30.42,NW,321,2.0,5.0,94,0.00,,,0.19,LWC V2.10 B1813,2013-07-10 18:55:00,
2013-07-10 11:00:00,48.3,46.7,30.42,NW,318,1.0,5.0,94,0.00,,,0.19,LWC V2.10 B1813,2013-07-10 19:00:00,
2013-07-10 11:05:00,48.3,46.7,30.41,West,268,0.0,7.0,94,0.00,,,0.19,LWC V2.10 B1813,2013-07-10 19:05:00,
2013-07-10 11:10:00,48.3,46.7,30.42,NNW,336,2.0,7.0,94,0.00,,,0.19,LWC V2.10 B1813,2013-07-10 19:10:00,
2013-07-10 11:11:00,48.3,46.7,30.42,NW,315,4.0,7.0,94,0.00,,,0.19,LWC V2.10 B1813,2013-07-10 19:11:00,
2013-07-10 11:16:00,48.2,46.6,30.42,West,271,1.0,6.0,94,0.00,,,0.19,LWC V2.10 B1813,2013-07-10 19:16:00,
2013-07-10 11:21:00,48.2,46.6,30.42,WNW,300,1.0,7.0,94,0.00,,,0.19,LWC V2.10 B1813,2013-07-10 19:21:00,
2013-07-10 11:26:00,48.1,46.5,30.42,NW,319,0.0,6.0,94,0.00,,,0.19,LWC V2.10 B1813,2013-07-10 19:26:00,
2013-07-10 11:31:00,48.1,46.5,30.42,WNW,298,2.0,7.0,94,0.00,,,0.19,LWC V2.10 B1813,2013-07-10 19:31:00,
2013-07-10 11:36:00,48.1,46.5,30.42,West,261,0.0,10.0,94,0.00,,,0.19,LWC V2.10 B1813,2013-07-10 19:36:00,
2013-07-10 11:41:00,48.1,46.5,30.42,NW,318,4.0,8.0,94,0.00,,,0.19,LWC V2.10 B1813,2013-07-10 19:41:00,
2013-07-10 11:46:00,48.1,46.5,30.42,WNW,302,3.0,9.0,94,0.00,,,0.19,LWC V2.10 B1813,2013-07-10 19:46:00,
2013-07-10 11:51:00,48.2,46.6,30.42,WNW,300,1.0,10.0,94,0.00,,,0.19,LWC V2.10 B1813,2013-07-10 19:51:00,
2013-07-10 11:56:00,48.4,47.0,30.42,WNW,291,1.0,6.0,95,0.00,,,0.19,LWC V2.10 B1813,2013-07-10 19:56:00,
2013-07-10 12:01:00,48.8,47.4,30.42,WNW,288,0.0,7.0,95,0.00,,,0.19,LWC V2.10 B1813,2013-07-10 20:01:00,
2013-07-10 12:06:00,49.1,47.7,30.42,West,271,1.0,7.0,95,0.00,,,0.19,LWC V2.10 B1813,2013-07-10 20:06:00,
2013-07-10 12:11:00,49.3,47.9,30.42,WNW,299,3.0,10.0,95,0.00,,,0.19,LWC V2.10 B1813,2013-07-10 20:11:00,
2013-07-10 12:16:00,49.4,48.0,30.42,North,0,2.0,8.0,95,0.00,,,0.19,LWC V2.10 B1813,2013-07-10 20:16:00,
2013-07-10 12:21:00,49.5,47.8,30.42,North,0,1.0,5.0,94,0.00,,,0.19,LWC V2.10 B1813,2013-07-10 20:21:00,
2013-07-10 12:26:00,49.5,47.8,30.43,West,275,2.0,6.0,94,0.00,,,0.19,LWC V2.10 B1813,2013-07-10 20:26:00,
2013-07-10 12:31:00,49.5,47.6,30.42,North,0,0.0,10.0,93,0.00,,,0.19,LWC V2.10 B1813,2013-07-10 20:31:00,
2013-07-10 12:36:00,49.6,47.7,30.42,North,9,4.0,10.0,93,0.00,,,0.19,LWC V2.10 B1813,2013-07-10 20:36:00,
2013-07-10 12:41:00,49.6,47.7,30.42,WNW,283,5.0,6.0,93,0.00,,,0.19,LWC V2.10 B1813,2013-07-10 20:41:00,
2013-07-10 12:46:00,49.8,47.9,30.42,North,0,10.0,10.0,93,0.00,,,0.19,LWC V2.10 B1813,2013-07-10 20:46:00,
2013-07-10 12:51:00,50.1,48.2,30.42,WNW,302,0.0,7.0,93,0.00,,,0.19,LWC V2.10 B1813,2013-07-10 20:51:00,
2013-07-10 12:56:00,50.5,48.8,30.42,WSW,248,7.0,8.0,94,0.00,,,0.19,LWC V2.10 B1813,2013-07-10 20:56:00,
2013-07-10 13:01:00,50.8,48.8,30.43,WNW,302,3.0,13.0,93,0.00,,,0.19,LWC V2.10 B1813,2013-07-10 21:01:00,
2013-07-10 13:06:00,51.2,49.2,30.43,WNW,292,2.0,8.0,93,0.00,,,0.19,LWC V2.10 B1813,2013-07-10 21:06:00,
2013-07-10 13:11:00,51.4,49.2,30.43,WNW,302,6.0,10.0,92,0.00,,,0.19,LWC V2.10 B1813,2013-07-10 21:11:00,
2013-07-10 13:16:00,51.4,48.9,30.43,WNW,291,7.0,8.0,91,0.00,,,0.19,LWC V2.10 B1813,2013-07-10 21:16:00,
2013-07-10 13:21:00,51.5,48.7,30.42,West,265,3.0,4.0,90,0.00,,,0.19,LWC V2.10 B1813,2013-07-10 21:21:00,
2013-07-10 13:26:00,51.4,48.6,30.43,NW,326,1.0,12.0,90,0.00,,,0.19,LWC V2.10 B1813,2013-07-10 21:26:00,
2013-07-10 13:31:00,51.3,48.5,30.43,WNW,285,2.0,7.0,90,0.00,,,0.19,LWC V2.10 B1813,2013-07-10 21:31:00,
2013-07-10 13:36:00,51.2,48.4,30.43,West,272,2.0,7.0,90,0.00,,,0.19,LWC V2.10 B1813,2013-07-10 21:36:00,
2013-07-10 13:41:00,51.2,48.1,30.43,West,261,0.0,10.0,89,0.00,,,0.19,LWC V2.10 B1813,2013-07-10 21:41:00,
2013-07-10 13:46:00,51.2,48.1,30.43,North,0,1.0,6.0,89,0.00,,,0.19,LWC V2.10 B1813,2013-07-10 21:46:00,
2013-07-10 13:51:00,51.3,48.8,30.43,WSW,253,1.0,11.0,91,0.00,,,0.19,LWC V2.10 B1813,2013-07-10 21:51:00,
2013-07-10 13:56:00,51.3,48.8,30.43,North,0,1.0,4.0,91,0.00,,,0.19,LWC V2.10 B1813,2013-07-10 21:56:00,
2013-07-10 14:01:00,51.3,48.2,30.43,NW,304,6.0,6.0,89,0.00,,,0.19,LWC V2.10 B1813,2013-07-10 22:01:00,
2013-07-10 14:06:00,51.3,48.5,30.43,West,275,2.0,7.0,90,0.00,,,0.19,LWC V2.10 B1813,2013-07-10 22:06:00,
2013-07-10 14:11:00,51.3,48.5,30.43,North,0,1.0,2.0,90,0.00,,,0.19,LWC V2.10 B1813,2013-07-10 22:11:00,
2013-07-10 14:16:00,51.3,48.5,30.43,WNW,290,0.0,9.0,90,0.00,,,0.19,LWC V2.10 B1813,2013-07-10 22:16:00,
2013-07-10 14:22:00,51.2,48.1,30.43,North,0,0.0,4.0,89,0.00,,,0.19,LWC V2.10 B1813,2013-07-10 22:22:00,
2013-07-10 14:27:00,51.1,48.0,30.43,WNW,298,2.0,7.0,89,0.00,,,0.19,LWC V2.10 B1813,2013-07-10 22:27:00,
2013-07-10 14:32:00,51.1,48.3,30.43,WSW,254,5.0,8.0,90,0.00,,,0.19,LWC V2.10 B1813,2013-07-10 22:32:00,
2013-07-10 14:37:00,51.1,48.0,30.43,North,0,1.0,6.0,89,0.00,,,0.19,LWC V2.10 B1813,2013-07-10 22:37:00,
2013-07-10 14:42:00,51.1,48.0,30.43,West,272,4.0,8.0,89,0.00,,,0.19,LWC V2.10 B1813,2013-07-10 22:42:00,
2013-07-10 14:47:00,51.2,48.1,30.43,North,0,0.0,5.0,89,0.00,,,0.19,LWC V2.10 B1813,2013-07-10 22:47:00,
2013-07-10 14:52:00,51.2,48.1,30.43,WSW,254,4.0,8.0,89,0.00,,,0.19,LWC V2.10 B1813,2013-07-10 22:52:00,
2013-07-10 14:57:00,51.3,48.2,30.44,West,277,6.0,7.0,89,0.00,,,0.19,LWC V2.10 B1813,2013-07-10 22:57:00,
2013-07-10 15:02:00,51.4,48.3,30.44,North,0,1.0,8.0,89,0.00,,,0.19,LWC V2.10 B1813,2013-07-10 23:02:00,
2013-07-10 15:07:00,51.4,48.0,30.44,North,0,8.0,10.0,88,0.00,,,0.19,LWC V2.10 B1813,2013-07-10 23:07:00,
2013-07-10 15:12:00,51.4,48.3,30.44,WSW,242,4.0,5.0,89,0.00,,,0.19,LWC V2.10 B1813,2013-07-10 23:12:00,
2013-07-10 15:17:00,51.5,48.7,30.44,West,271,6.0,6.0,90,0.00,,,0.19,LWC V2.10 B1813,2013-07-10 23:17:00,
2013-07-10 15:22:00,51.5,48.4,30.44,West,279,0.0,8.0,89,0.00,,,0.19,LWC V2.10 B1813,2013-07-10 23:22:00,
2013-07-10 15:27:00,51.6,48.8,30.44,WNW,287,8.0,10.0,90,0.00,,,0.19,LWC V2.10 B1813,2013-07-10 23:27:00,
2013-07-10 15:32:00,51.8,48.7,30.44,West,261,2.0,4.0,89,0.00,,,0.19,LWC V2.10 B1813,2013-07-10 23:32:00,
2013-07-10 15:37:00,51.9,48.5,30.44,North,0,5.0,6.0,88,0.00,,,0.19,LWC V2.10 B1813,2013-07-10 23:37:00,
2013-07-10 15:42:00,52.0,48.9,30.44,WNW,291,4.0,8.0,89,0.00,,,0.19,LWC V2.10 B1813,2013-07-10 23:42:00,
2013-07-10 15:47:00,52.1,48.7,30.44,WNW,290,1.0,6.0,88,0.00,,,0.19,LWC V2.10 B1813,2013-07-10 23:47:00,
2013-07-10 15:52:00,52.1,48.3,30.44,NW,317,5.0,5.0,87,0.00,,,0.19,LWC V2.10 B1813,2013-07-10 23:52:00,
2013-07-10 15:57:00,52.4,49.3,30.44,WNW,298,2.0,5.0,89,0.00,,,0.19,LWC V2.10 B1813,2013-07-10 23:57:00,
2013-07-10 16:02:00,52.7,49.2,30.44,WNW,287,0.0,5.0,88,0.00,,,0.19,LWC V2.10 B1813,2013-07-11 00:02:00,
2013-07-10 16:07:00,53.0,49.2,30.44,North,0,1.0,11.0,87,0.00,,,0.19,LWC V2.10 B1813,2013-07-11 00:07:00,
2013-07-10 16:12:00,53.3,49.5,30.44,West,275,0.0,9.0,87,0.00,,,0.19,LWC V2.10 B1813,2013-07-11 00:12:00,
2013-07-10 16:17:00,53.5,49.4,30.44,WNW,294,12.0,12.0,86,0.00,,,0.19,LWC V2.10 B1813,2013-07-11 00:17:00,
2013-07-10 16:22:00,53.6,49.2,30.44,WNW,284,3.0,13.0,85,0.00,,,0.19,LWC V2.10 B1813,2013-07-11 00:22:00,
2013-07-10 16:27:00,53.8,49.4,30.44,North,0,1.0,11.0,85,0.00,,,0.19,LWC V2.10 B1813,2013-07-11 00:27:00,
2013-07-10 16:32:00,54.0,49.0,30.44,WSW,255,4.0,13.0,83,0.00,,,0.19,LWC V2.10 B1813,2013-07-11 00:32:00,
2013-07-10 16:37:00,54.0,49.3,30.44,NW,311,4.0,6.0,84,0.00,,,0.19,LWC V2.10 B1813,2013-07-11 00:37:00,
2013-07-10 16:42:00,54.0,49.0,30.44,West,272,0.0,9.0,83,0.00,,,0.19,LWC V2.10 B1813,2013-07-11 00:42:00,
2013-07-10 16:47:00,53.9,48.9,30.44,WNW,294,5.0,8.0,83,0.00,,,0.19,LWC V2.10 B1813,2013-07-11 00:47:00,
2013-07-10 16:52:00,53.8,49.1,30.44,North,0,2.0,9.0,84,0.00,,,0.19,LWC V2.10 B1813,2013-07-11 00:52:00,
2013-07-10 16:57:00,53.8,48.8,30.44,West,281,4.0,9.0,83,0.00,,,0.19,LWC V2.10 B1813,2013-07-11 00:57:00,
2013-07-10 17:02:00,53.9,49.2,30.44,WNW,295,2.0,7.0,84,0.00,,,0.19,LWC V2.10 B1813,2013-07-11 01:02:00,
2013-07-10 17:07:00,54.0,49.0,30.44,WNW,290,3.0,6.0,83,0.00,,,0.19,LWC V2.10 B1813,2013-07-11 01:07:00,
2013-07-10 17:12:00,54.1,49.4,30.44,NNW,329,7.0,8.0,84,0.00,,,0.19,LWC V2.10 B1813,2013-07-11 01:12:00,
2013-07-10 17:17:00,54.2,49.5,30.44,NNW,338,3.0,4.0,84,0.00,,,0.19,LWC V2.10 B1813,2013-07-11 01:17:00,
2013-07-10 17:22:00,54.4,49.3,30.44,WSW,252,1.0,5.0,83,0.00,,,0.19,LWC V2.10 B1813,2013-07-11 01:22:00,
2013-07-10 17:27:00,54.6,49.5,30.44,WNW,288,0.0,9.0,83,0.00,,,0.19,LWC V2.10 B1813,2013-07-11 01:27:00,
2013-07-10 17:32:00,54.7,49.6,30.44,WNW,298,4.0,8.0,83,0.00,,,0.19,LWC V2.10 B1813,2013-07-11 01:32:00,
2013-07-10 17:37:00,54.8,49.4,30.44,WNW,293,6.0,10.0,82,0.00,,,0.19,LWC V2.10 B1813,2013-07-11 01:37:00,
2013-07-10 17:42:00,54.7,49.0,30.44,West,271,5.0,9.0,81,0.00,,,0.19,LWC V2.10 B1813,2013-07-11 01:42:00,
2013-07-10 17:47:00,54.6,48.9,30.44,SW,232,0.0,4.0,81,0.00,,,0.19,LWC V2.10 B1813,2013-07-11 01:47:00,
2013-07-10 17:52:00,54.6,49.5,30.44,West,273,2.0,11.0,83,0.00,,,0.19,LWC V2.10 B1813,2013-07-11 01:52:00,
2013-07-10 17:57:00,54.7,49.3,30.44,NW,323,0.0,9.0,82,0.00,,,0.19,LWC V2.10 B1813,2013-07-11 01:57:00,
2013-07-10 18:02:00,54.8,49.1,30.44,NW,314,0.0,7.0,81,0.00,,,0.19,LWC V2.10 B1813,2013-07-11 02:02:00,
2013-07-10 18:07:00,54.8,49.1,30.44,West,260,2.0,9.0,81,0.00,,,0.19,LWC V2.10 B1813,2013-07-11 02:07:00,
2013-07-10 18:12:00,54.7,49.0,30.44,North,0,1.0,4.0,81,0.00,,,0.19,LWC V2.10 B1813,2013-07-11 02:12:00,
2013-07-10 18:17:00,54.6,49.2,30.44,WNW,300,4.0,7.0,82,0.00,,,0.19,LWC V2.10 B1813,2013-07-11 02:17:00,
2013-07-10 18:22:00,54.5,48.8,30.44,WNW,288,2.0,11.0,81,0.00,,,0.19,LWC V2.10 B1813,2013-07-11 02:22:00,
2013-07-10 18:27:00,54.5,48.8,30.44,WSW,250,4.0,9.0,81,0.00,,,0.19,LWC V2.10 B1813,2013-07-11 02:27:00,
2013-07-10 18:32:00,54.5,48.8,30.44,West,270,2.0,3.0,81,0.00,,,0.19,LWC V2.10 B1813,2013-07-11 02:32:00,
2013-07-10 18:37:00,54.6,49.5,30.44,West,269,4.0,10.0,83,0.00,,,0.19,LWC V2.10 B1813,2013-07-11 02:37:00,
2013-07-10 18:43:00,54.7,49.3,30.44,West,279,2.0,3.0,82,0.00,,,0.19,LWC V2.10 B1813,2013-07-11 02:43:00,
2013-07-10 18:48:00,54.7,48.7,30.44,WNW,283,2.0,9.0,80,0.00,,,0.19,LWC V2.10 B1813,2013-07-11 02:48:00,
2013-07-10 18:53:00,54.7,49.3,30.44,West,271,0.0,7.0,82,0.00,,,0.19,LWC V2.10 B1813,2013-07-11 02:53:00,
2013-07-10 18:58:00,54.6,48.9,30.44,West,264,0.0,3.0,81,0.00,,,0.19,LWC V2.10 B1813,2013-07-11 02:58:00,
2013-07-10 19:03:00,54.6,49.2,30.44,NW,319,3.0,9.0,82,0.00,,,0.19,LWC V2.10 B1813,2013-07-11 03:03:00,
2013-07-10 19:08:00,54.6,48.6,30.44,West,265,2.0,6.0,80,0.00,,,0.19,LWC V2.10 B1813,2013-07-11 03:08:00,
2013-07-10 19:13:00,54.6,48.9,30.45,WNW,286,1.0,5.0,81,0.00,,,0.19,LWC V2.10 B1813,2013-07-11 03:13:00,
2013-07-10 19:18:00,54.5,48.8,30.45,NW,305,0.0,5.0,81,0.00,,,0.19,LWC V2.10 B1813,2013-07-11 03:18:00,
2013-07-10 19:23:00,54.4,48.7,30.45,North,0,0.0,8.0,81,0.00,,,0.19,LWC V2.10 B1813,2013-07-11 03:23:00,
2013-07-10 19:28:00,54.2,48.8,30.45,WNW,289,3.0,5.0,82,0.00,,,0.19,LWC V2.10 B1813,2013-07-11 03:28:00,
2013-07-10 19:33:00,54.0,48.6,30.45,WNW,285,0.0,4.0,82,0.00,,,0.19,LWC V2.10 B1813,2013-07-11 03:33:00,
2013-07-10 19:38:00,53.9,49.2,30.45,West,261,0.0,5.0,84,0.00,,,0.19,LWC V2.10 B1813,2013-07-11 03:38:00,
2013-07-10 19:43:00,53.8,49.4,30.45,North,0,2.0,5.0,85,0.00,,,0.19,LWC V2.10 B1813,2013-07-11 03:43:00,
2013-07-10 19:48:00,53.8,49.1,30.45,WNW,290,1.0,3.0,84,0.00,,,0.19,LWC V2.10 B1813,2013-07-11 03:48:00,
2013-07-10 19:53:00,53.8,48.8,30.45,West,270,2.0,6.0,83,0.00,,,0.19,LWC V2.10 B1813,2013-07-11 03:53:00,
2013-07-10 19:58:00,53.8,48.8,30.45,WNW,286,0.0,2.0,83,0.00,,,0.19,LWC V2.10 B1813,2013-07-11 03:58:00,
2013-07-10 20:01:00,53.9,49.2,30.45,West,279,5.0,9.0,84,0.00,,,0.19,LWC V2.10 B1813,2013-07-11 04:01:00,
2013-07-10 20:06:00,53.9,49.2,30.45,WNW,290,5.0,5.0,84,0.00,,,0.19,LWC V2.10 B1813,2013-07-11 04:06:00,
2013-07-10 20:11:00,53.9,48.9,30.45,West,276,2.0,4.0,83,0.00,,,0.19,LWC V2.10 B1813,2013-07-11 04:11:00,
2013-07-10 20:12:00,53.9,48.9,30.45,WNW,300,2.0,4.0,83,0.00,,,0.19,LWC V2.10 B1813,2013-07-11 04:12:00,
2013-07-10 20:17:00,53.9,48.5,30.45,North,0,0.0,3.0,82,0.00,,,0.19,LWC V2.10 B1813,2013-07-11 04:17:00,
2013-07-10 20:19:00,53.9,48.5,30.45,West,264,0.0,1.0,82,0.00,,,0.19,LWC V2.10 B1813,2013-07-11 04:19:00,
2013-07-10 20:24:00,54.0,49.3,30.45,WNW,298,2.0,8.0,84,0.00,,,0.19,LWC V2.10 B1813,2013-07-11 04:24:00,
2013-07-10 20:29:00,54.0,49.0,30.45,North,0,0.0,2.0,83,0.00,,,0.19,LWC V2.10 B1813,2013-07-11 04:29:00,
2013-07-10 20:33:00,53.9,48.9,30.45,West,279,2.0,2.0,83,0.00,,,0.19,LWC V2.10 B1813,2013-07-11 04:33:00,
2013-07-10 20:38:00,53.9,49.2,30.45,WNW,286,1.0,5.0,84,0.00,,,0.19,LWC V2.10 B1813,2013-07-11 04:38:00,
2013-07-10 20:43:00,53.8,48.8,30.45,North,0,2.0,4.0,83,0.00,,,0.19,LWC V2.10 B1813,2013-07-11 04:43:00,
2013-07-10 20:48:00,53.7,49.0,30.45,WNW,294,0.0,1.0,84,0.00,,,0.19,LWC V2.10 B1813,2013-07-11 04:48:00,
2013-07-10 20:53:00,53.6,48.9,30.46,WNW,288,0.0,3.0,84,0.00,,,0.19,LWC V2.10 B1813,2013-07-11 04:53:00,
2013-07-10 20:58:00,53.5,49.1,30.46,West,276,3.0,5.0,85,0.00,,,0.19,LWC V2.10 B1813,2013-07-11 04:58:00,
2013-07-10 21:03:00,53.3,48.9,30.46,West,266,3.0,3.0,85,0.00,,,0.19,LWC V2.10 B1813,2013-07-11 05:03:00,
2013-07-10 21:08:00,53.2,48.8,30.46,West,261,0.0,4.0,85,0.00,,,0.19,LWC V2.10 B1813,2013-07-11 05:08:00,
2013-07-10 21:13:00,53.1,49.0,30.46,West,266,2.0,3.0,86,0.00,,,0.19,LWC V2.10 B1813,2013-07-11 05:13:00,
2013-07-10 21:18:00,53.0,48.9,30.46,West,267,0.0,1.0,86,0.00,,,0.19,LWC V2.10 B1813,2013-07-11 05:18:00,
2013-07-10 21:23:00,52.9,48.8,30.46,West,265,0.0,2.0,86,0.00,,,0.19,LWC V2.10 B1813,2013-07-11 05:23:00,
2013-07-10 21:28:00,52.8,48.7,30.46,West,275,0.0,2.0,86,0.00,,,0.19,LWC V2.10 B1813,2013-07-11 05:28:00,
2013-07-10 21:33:00,52.7,48.9,30.46,West,274,1.0,3.0,87,0.00,,,0.19,LWC V2.10 B1813,2013-07-11 05:33:00,
2013-07-10 21:38:00,52.6,48.8,30.46,WNW,283,4.0,6.0,87,0.00,,,0.19,LWC V2.10 B1813,2013-07-11 05:38:00,
2013-07-10 21:43:00,52.4,48.6,30.46,West,268,0.0,0.0,87,0.00,,,0.19,LWC V2.10 B1813,2013-07-11 05:43:00,
2013-07-10 21:48:00,52.3,48.5,30.46,North,0,0.0,2.0,87,0.00,,,0.19,LWC V2.10 B1813,2013-07-11 05:48:00,
2013-07-10 21:54:00,52.2,48.8,30.46,West,259,2.0,2.0,88,0.00,,,0.19,LWC V2.10 B1813,2013-07-11 05:54:00,
2013-07-10 21:59:00,52.1,48.7,30.46,SW,227,2.0,3.0,88,0.00,,,0.19,LWC V2.10 B1813,2013-07-11 05:59:00,
2013-07-10 22:04:00,51.9,48.8,30.46,WSW,245,0.0,3.0,89,0.00,,,0.19,LWC V2.10 B1813,2013-07-11 06:04:00,
2013-07-10 22:09:00,51.8,48.7,30.47,WSW,250,1.0,4.0,89,0.00,,,0.19,LWC V2.10 B1813,2013-07-11 06:09:00,
2013-07-10 22:14:00,51.7,48.6,30.47,West,263,5.0,5.0,89,0.00,,,0.19,LWC V2.10 B1813,2013-07-11 06:14:00,
2013-07-10 22:19:00,51.5,48.4,30.47,WSW,254,0.0,2.0,89,0.00,,,0.19,LWC V2.10 B1813,2013-07-11 06:19:00,
2013-07-10 22:24:00,51.4,48.3,30.46,WSW,250,0.0,3.0,89,0.00,,,0.19,LWC V2.10 B1813,2013-07-11 06:24:00,
2013-07-10 22:29:00,51.3,48.2,30.46,WSW,252,0.0,2.0,89,0.00,,,0.19,LWC V2.10 B1813,2013-07-11 06:29:00,
2013-07-10 22:34:00,51.2,48.4,30.47,WSW,252,0.0,2.0,90,0.00,,,0.19,LWC V2.10 B1813,2013-07-11 06:34:00,
2013-07-10 22:39:00,51.1,48.3,30.47,WSW,246,0.0,1.0,90,0.00,,,0.19,LWC V2.10 B1813,2013-07-11 06:39:00,
2013-07-10 22:44:00,51.1,48.3,30.47,WSW,245,0.0,0.0,90,0.00,,,0.19,LWC V2.10 B1813,2013-07-11 06:44:00,
2013-07-10 22:49:00,51.0,48.2,30.47,WSW,245,1.0,3.0,90,0.00,,,0.19,LWC V2.10 B1813,2013-07-11 06:49:00,
2013-07-10 22:54:00,51.0,48.2,30.47,WSW,245,0.0,0.0,90,0.00,,,0.19,LWC V2.10 B1813,2013-07-11 06:54:00,
2013-07-10 22:59:00,51.0,48.2,30.47,WSW,245,1.0,1.0,90,0.00,,,0.19,LWC V2.10 B1813,2013-07-11 06:59:00,
2013-07-10 23:04:00,51.0,48.2,30.47,WSW,246,0.0,2.0,90,0.00,,,0.19,LWC V2.10 B1813,2013-07-11 07:04:00,
2013-07-10 23:09:00,50.9,48.4,30.47,WSW,238,0.0,3.0,91,0.00,,,0.19,LWC V2.10 B1813,2013-07-11 07:09:00,
2013-07-10 23:14:00,50.8,48.3,30.47,SW,236,0.0,1.0,91,0.00,,,0.19,LWC V2.10 B1813,2013-07-11 07:14:00,
2013-07-10 23:19:00,50.8,48.3,30.48,WSW,238,0.0,1.0,91,0.00,,,0.19,LWC V2.10 B1813,2013-07-11 07:19:00,
2013-07-10 23:24:00,50.7,48.2,30.48,North,0,0.0,1.0,91,0.00,,,0.19,LWC V2.10 B1813,2013-07-11 07:24:00,
2013-07-10 23:29:00,50.7,48.2,30.48,WSW,237,0.0,0.0,91,0.00,,,0.19,LWC V2.10 B1813,2013-07-11 07:29:00,
2013-07-10 23:34:00,50.6,48.1,30.48,WSW,237,0.0,0.0,91,0.00,,,0.19,LWC V2.10 B1813,2013-07-11 07:34:00,
2013-07-10 23:39:00,50.6,48.1,30.48,WSW,237,0.0,0.0,91,0.00,,,0.19,LWC V2.10 B1813,2013-07-11 07:39:00,
2013-07-10 23:44:00,50.6,48.4,30.48,WSW,238,0.0,0.0,92,0.00,,,0.19,LWC V2.10 B1813,2013-07-11 07:44:00,
2013-07-10 23:49:00,50.5,48.3,30.48,WSW,239,1.0,1.0,92,0.00,,,0.19,LWC V2.10 B1813,2013-07-11 07:49:00,
2013-07-10 23:54:00,50.4,48.2,30.48,WSW,237,0.0,0.0,92,0.00,,,0.19,LWC V2.10 B1813,2013-07-11 07:54:00,
2013-07-10 23:59:00,50.3,48.1,30.48,WSW,237,0.0,0.0,92,0.00,,,0.19,LWC V2.10 B1813,2013-07-11 07:59:00,